WMT5682 LICD-LIRF

Flight info

Callsign WMT5682
Flight time 1h 16m
Altitude 34000
Route PURZE Z404 DEXOL DCT LONDI DCT LURON DCT BEROL DCT PNZ DCT NEKPI DCT LAT
Aircraft A21N/M-SDE2E3FGHIRWXY/LB1

Departure

Time 2026-04-17 11:34
Airport Lampedusa Airport (LICD)

Arrival

Time 2026-04-17 12:51
Airport Rome–Fiumicino Leonardo da Vinci International Airport (LIRF)
Time Latitude Longitude Altitude Speed Heading
2026-04-17 11:16 35.50008 12.61906 57 ft 0 kts 48°
2026-04-17 11:28 35.50009 12.61907 57 ft 0 kts 51°
2026-04-17 11:29 35.50007 12.61915 57 ft 1 kts 136°
2026-04-17 11:29 35.49971 12.61928 57 ft 7 kts 165°
2026-04-17 11:29 35.49906 12.61945 57 ft 11 kts 171°
2026-04-17 11:29 35.49836 12.61985 58 ft 11 kts 116°
2026-04-17 11:30 35.49833 12.62073 58 ft 10 kts 82°
2026-04-17 11:30 35.49844 12.62155 59 ft 9 kts 80°
2026-04-17 11:30 35.49855 12.62233 60 ft 8 kts 80°
2026-04-17 11:30 35.49866 12.62305 61 ft 8 kts 80°
2026-04-17 11:31 35.49875 12.62375 61 ft 8 kts 81°
2026-04-17 11:31 35.49884 12.62446 62 ft 9 kts 81°
2026-04-17 11:31 35.49896 12.62526 63 ft 10 kts 81°
2026-04-17 11:31 35.49910 12.62637 64 ft 16 kts 81°
2026-04-17 11:32 35.49928 12.62768 65 ft 14 kts 79°
2026-04-17 11:32 35.49954 12.62866 66 ft 10 kts 53°
2026-04-17 11:32 35.49963 12.62912 66 ft 1 kts 134°
2026-04-17 11:32 35.49946 12.62898 66 ft 4 kts 238°
2026-04-17 11:33 35.49939 12.62859 66 ft 4 kts 262°
2026-04-17 11:33 35.49928 12.62773 65 ft 19 kts 262°
2026-04-17 11:33 35.49873 12.62366 62 ft 87 kts 261°
2026-04-17 11:33 35.49728 12.61325 51 ft 155 kts 262°
2026-04-17 11:34 35.49512 12.59957 530 ft 168 kts 265°
2026-04-17 11:34 35.49324 12.58561 1231 ft 169 kts 267°
2026-04-17 11:34 35.49157 12.57154 1939 ft 167 kts 268°
2026-04-17 11:34 35.48992 12.55673 2197 ft 189 kts 266°
2026-04-17 11:35 35.48773 12.53987 2481 ft 209 kts 266°
2026-04-17 11:35 35.48994 12.52225 2892 ft 214 kts 304°
2026-04-17 11:35 35.50108 12.51040 3452 ft 216 kts 341°
2026-04-17 11:35 35.51548 12.50754 4223 ft 213 kts 359°
2026-04-17 11:36 35.53023 12.50688 4920 ft 215 kts 358°
2026-04-17 11:36 35.54532 12.50592 5591 ft 219 kts 358°
2026-04-17 11:36 35.56068 12.50479 6256 ft 223 kts 357°
2026-04-17 11:36 35.57609 12.50355 6890 ft 227 kts 358°
2026-04-17 11:37 35.59203 12.50224 7538 ft 230 kts 358°
2026-04-17 11:37 35.60789 12.50092 8183 ft 233 kts 358°
2026-04-17 11:37 35.62401 12.50010 8807 ft 234 kts
2026-04-17 11:37 35.63900 12.50709 9392 ft 234 kts 40°
2026-04-17 11:38 35.64900 12.52296 9803 ft 243 kts 69°
2026-04-17 11:38 35.65417 12.54349 10127 ft 259 kts 73°
2026-04-17 11:38 35.65946 12.56524 10440 ft 275 kts 73°
2026-04-17 11:38 35.66520 12.58817 10739 ft 292 kts 72°
2026-04-17 11:39 35.67144 12.61272 11034 ft 308 kts 72°
2026-04-17 11:39 35.67800 12.63837 11326 ft 323 kts 72°
2026-04-17 11:39 35.68489 12.66522 11588 ft 338 kts 72°
2026-04-17 11:39 35.69212 12.69335 11837 ft 351 kts 72°
2026-04-17 11:40 35.69956 12.72232 12173 ft 361 kts 72°
2026-04-17 11:40 35.70708 12.75164 12701 ft 365 kts 72°
2026-04-17 11:40 35.71473 12.78146 13266 ft 367 kts 71°
2026-04-17 11:40 35.72248 12.81171 13799 ft 370 kts 71°
2026-04-17 11:41 35.73015 12.84157 14301 ft 373 kts 71°
2026-04-17 11:41 35.73801 12.87224 14824 ft 375 kts 71°
2026-04-17 11:41 35.74921 12.90097 15260 ft 376 kts 52°
2026-04-17 11:41 35.76870 12.92172 15709 ft 378 kts 29°
2026-04-17 11:42 35.79354 12.93255 16202 ft 379 kts 11°
2026-04-17 11:42 35.81960 12.93643 16685 ft 381 kts
2026-04-17 11:42 35.84623 12.94011 17110 ft 385 kts
2026-04-17 11:42 35.87298 12.94402 17541 ft 387 kts
2026-04-17 11:43 35.89968 12.94810 17973 ft 389 kts
2026-04-17 11:43 35.92667 12.95236 18393 ft 392 kts
2026-04-17 11:43 35.95372 12.95671 18802 ft 394 kts
2026-04-17 11:43 35.98096 12.96115 19206 ft 396 kts
2026-04-17 11:44 36.00831 12.96564 19610 ft 398 kts
2026-04-17 11:44 36.03604 12.97022 20015 ft 400 kts
2026-04-17 11:44 36.06342 12.97475 20408 ft 401 kts
2026-04-17 11:44 36.09132 12.97937 20794 ft 403 kts
2026-04-17 11:45 36.11924 12.98401 21170 ft 405 kts
2026-04-17 11:45 36.14712 12.98865 21526 ft 407 kts
2026-04-17 11:45 36.17506 12.99331 21871 ft 409 kts
2026-04-17 11:45 36.20314 12.99798 22234 ft 410 kts
2026-04-17 11:46 36.23154 13.00272 22578 ft 412 kts
2026-04-17 11:46 36.26018 13.00750 22905 ft 413 kts
2026-04-17 11:46 36.28879 13.01227 23225 ft 415 kts
2026-04-17 11:46 36.31737 13.01705 23520 ft 417 kts
2026-04-17 11:47 36.34607 13.02186 23821 ft 419 kts
2026-04-17 11:47 36.37480 13.02666 24108 ft 421 kts
2026-04-17 11:47 36.40387 13.03153 24384 ft 423 kts
2026-04-17 11:47 36.43319 13.03644 24670 ft 424 kts
2026-04-17 11:48 36.46272 13.04139 24937 ft 426 kts
2026-04-17 11:48 36.49223 13.04634 25200 ft 428 kts
2026-04-17 11:48 36.52171 13.05130 25476 ft 429 kts
2026-04-17 11:48 36.55112 13.05624 25737 ft 431 kts
2026-04-17 11:49 36.58107 13.06128 25984 ft 432 kts
2026-04-17 11:49 36.61081 13.06629 26227 ft 434 kts
2026-04-17 11:49 36.64089 13.07136 26454 ft 436 kts
2026-04-17 11:49 36.67077 13.07639 26691 ft 437 kts
2026-04-17 11:50 36.70111 13.08151 26972 ft 437 kts
2026-04-17 11:50 36.73087 13.08653 27298 ft 436 kts
2026-04-17 11:50 36.76092 13.09160 27616 ft 435 kts
2026-04-17 11:50 36.79103 13.09668 27925 ft 435 kts
2026-04-17 11:51 36.82099 13.10175 28236 ft 434 kts
2026-04-17 11:51 36.85077 13.10680 28552 ft 434 kts
2026-04-17 11:51 36.88055 13.11184 28872 ft 433 kts
2026-04-17 11:51 36.91059 13.11693 29221 ft 431 kts
2026-04-17 11:52 36.94021 13.12195 29563 ft 430 kts
2026-04-17 11:52 36.96959 13.12693 29890 ft 429 kts
2026-04-17 11:52 36.99910 13.13194 30229 ft 428 kts
2026-04-17 11:52 37.02855 13.13695 30555 ft 427 kts
2026-04-17 11:53 37.05790 13.14195 30880 ft 425 kts
2026-04-17 11:53 37.08722 13.14695 31186 ft 424 kts
2026-04-17 11:53 37.11657 13.15196 31483 ft 424 kts
2026-04-17 11:53 37.14549 13.15689 31758 ft 424 kts
2026-04-17 11:54 37.17483 13.16189 32033 ft 424 kts
2026-04-17 11:54 37.20416 13.16688 32341 ft 423 kts
2026-04-17 11:54 37.23295 13.17178 32599 ft 423 kts
2026-04-17 11:54 37.26215 13.17678 32818 ft 423 kts
2026-04-17 11:55 37.29142 13.18179 33038 ft 424 kts
2026-04-17 11:55 37.32076 13.18625 33250 ft 425 kts
2026-04-17 11:55 37.34995 13.18880 33465 ft 426 kts
2026-04-17 11:55 37.37967 13.18936 33686 ft 427 kts
2026-04-17 11:56 37.40961 13.18832 33906 ft 427 kts 359°
2026-04-17 11:56 37.43899 13.18693 34058 ft 428 kts 359°
2026-04-17 11:56 37.49875 13.18395 34057 ft 429 kts 359°
2026-04-17 11:57 37.55846 13.18098 34060 ft 429 kts 359°
2026-04-17 11:57 37.61779 13.17806 34068 ft 429 kts 359°
2026-04-17 11:58 37.67744 13.17514 34068 ft 428 kts 359°
2026-04-17 11:58 37.73680 13.17222 34077 ft 428 kts 359°
2026-04-17 11:59 37.79647 13.16929 34080 ft 427 kts 359°
2026-04-17 11:59 37.85573 13.16639 34082 ft 428 kts 359°
2026-04-17 12:00 37.91513 13.16346 34088 ft 427 kts 359°
2026-04-17 12:00 37.97423 13.16053 34091 ft 427 kts 359°
2026-04-17 12:01 38.03392 13.15758 34093 ft 426 kts 359°
2026-04-17 12:01 38.09314 13.15465 34088 ft 426 kts 359°
2026-04-17 12:02 38.15232 13.15171 34090 ft 426 kts 359°
2026-04-17 12:02 38.21155 13.14877 34081 ft 427 kts 359°
2026-04-17 12:03 38.27077 13.14582 34075 ft 427 kts 359°
2026-04-17 12:03 38.33023 13.14285 34074 ft 427 kts 359°
2026-04-17 12:04 38.38962 13.13988 34067 ft 427 kts 359°
2026-04-17 12:04 38.44898 13.13691 34075 ft 427 kts 359°
2026-04-17 12:05 38.50814 13.13394 34075 ft 427 kts 359°
2026-04-17 12:05 38.56726 13.13096 34077 ft 427 kts 359°
2026-04-17 12:06 38.62677 13.12796 34068 ft 427 kts 359°
2026-04-17 12:06 38.68623 13.12494 34072 ft 426 kts 359°
2026-04-17 12:07 38.74510 13.12196 34066 ft 426 kts 359°
2026-04-17 12:07 38.80436 13.11892 34066 ft 426 kts 359°
2026-04-17 12:08 38.86361 13.11589 34050 ft 425 kts 359°
2026-04-17 12:08 38.92253 13.11169 34048 ft 424 kts 359°
2026-04-17 12:09 38.98121 13.10721 34047 ft 424 kts 359°
2026-04-17 12:09 39.04004 13.10275 34061 ft 425 kts 359°
2026-04-17 12:10 39.09921 13.09829 34058 ft 425 kts 359°
2026-04-17 12:10 39.15825 13.09383 34062 ft 424 kts 359°
2026-04-17 12:11 39.21681 13.08939 34060 ft 424 kts 359°
2026-04-17 12:12 39.30498 13.08270 34060 ft 423 kts 359°
2026-04-17 12:12 39.36390 13.07823 34064 ft 424 kts 359°
2026-04-17 12:13 39.42268 13.07376 34063 ft 424 kts 359°
2026-04-17 12:13 39.48152 13.06929 34062 ft 423 kts 359°
2026-04-17 12:14 39.54042 13.06478 34061 ft 423 kts 358°
2026-04-17 12:14 39.59912 13.06029 34061 ft 424 kts 359°
2026-04-17 12:15 39.65765 13.05579 34061 ft 424 kts 359°
2026-04-17 12:15 39.71666 13.05127 34061 ft 424 kts 359°
2026-04-17 12:16 39.77550 13.04674 34062 ft 424 kts 359°
2026-04-17 12:16 39.83426 13.04222 34062 ft 423 kts 359°
2026-04-17 12:17 39.89297 13.03769 34060 ft 423 kts 358°
2026-04-17 12:17 39.95153 13.03315 34063 ft 423 kts 358°
2026-04-17 12:18 40.01060 13.02856 34060 ft 424 kts 358°
2026-04-17 12:18 40.06896 13.02400 34052 ft 423 kts 359°
2026-04-17 12:19 40.12758 13.01942 34054 ft 422 kts 358°
2026-04-17 12:19 40.18653 13.01481 34056 ft 422 kts 359°
2026-04-17 12:20 40.24486 13.01032 34052 ft 422 kts 358°
2026-04-17 12:20 40.30358 13.00579 34048 ft 423 kts 358°
2026-04-17 12:21 40.36221 13.00121 34048 ft 424 kts 358°
2026-04-17 12:21 40.42117 12.99658 34047 ft 422 kts 358°
2026-04-17 12:22 40.47933 12.99200 34046 ft 422 kts 358°
2026-04-17 12:22 40.53818 12.98735 34046 ft 423 kts 358°
2026-04-17 12:23 40.59666 12.98274 34045 ft 424 kts 358°
2026-04-17 12:23 40.65573 12.97807 34050 ft 423 kts 358°
2026-04-17 12:23 40.68494 12.97574 33766 ft 422 kts 358°
2026-04-17 12:24 40.71410 12.97342 32930 ft 427 kts 358°
2026-04-17 12:24 40.74381 12.97105 31869 ft 434 kts 358°
2026-04-17 12:24 40.77418 12.96862 30896 ft 437 kts 358°
2026-04-17 12:24 40.80415 12.96622 30025 ft 438 kts 358°
2026-04-17 12:25 40.83470 12.96379 29103 ft 440 kts 358°
2026-04-17 12:25 40.86530 12.96137 28260 ft 440 kts 359°
2026-04-17 12:25 40.89563 12.96101 27433 ft 439 kts
2026-04-17 12:25 40.92572 12.96417 26614 ft 438 kts
2026-04-17 12:26 40.95546 12.97081 25952 ft 433 kts 12°
2026-04-17 12:26 40.98486 12.97921 25409 ft 427 kts 13°
2026-04-17 12:26 41.01345 12.98771 24860 ft 422 kts 13°
2026-04-17 12:26 41.04208 12.99631 24293 ft 418 kts 13°
2026-04-17 12:27 41.07017 13.00475 23734 ft 414 kts 13°
2026-04-17 12:27 41.09827 13.01317 23181 ft 410 kts 13°
2026-04-17 12:27 41.12593 13.02146 22641 ft 406 kts 13°
2026-04-17 12:27 41.15311 13.02959 22136 ft 402 kts 13°
2026-04-17 12:28 41.18009 13.03764 21625 ft 398 kts 13°
2026-04-17 12:28 41.20693 13.04567 21101 ft 395 kts 13°
2026-04-17 12:28 41.23368 13.05367 20591 ft 391 kts 13°
2026-04-17 12:28 41.25990 13.06153 20061 ft 388 kts 13°
2026-04-17 12:29 41.28642 13.06951 19558 ft 385 kts 13°
2026-04-17 12:29 41.31248 13.07568 19015 ft 383 kts
2026-04-17 12:29 41.33877 13.07277 18484 ft 383 kts 349°
2026-04-17 12:29 41.36377 13.06024 17969 ft 383 kts 334°
2026-04-17 12:30 41.38666 13.04255 17478 ft 380 kts 331°
2026-04-17 12:30 41.40919 13.02433 17106 ft 373 kts 331°
2026-04-17 12:30 41.43084 13.00676 16918 ft 361 kts 331°
2026-04-17 12:30 41.45197 12.98971 16760 ft 349 kts 331°
2026-04-17 12:31 41.47226 12.97343 16592 ft 337 kts 331°
2026-04-17 12:31 41.49229 12.95743 16423 ft 326 kts 331°
2026-04-17 12:31 41.51141 12.94216 16270 ft 315 kts 331°
2026-04-17 12:31 41.52959 12.92729 16126 ft 305 kts 328°
2026-04-17 12:32 41.54662 12.91073 16021 ft 300 kts 323°
2026-04-17 12:32 41.56246 12.89223 16040 ft 307 kts 320°
2026-04-17 12:32 41.57830 12.87255 16047 ft 309 kts 319°
2026-04-17 12:32 41.59447 12.85416 16039 ft 306 kts 331°
2026-04-17 12:33 41.61404 12.84348 16052 ft 303 kts 346°
2026-04-17 12:33 41.63431 12.83668 15947 ft 298 kts 348°
2026-04-17 12:33 41.65442 12.83065 15535 ft 298 kts 349°
2026-04-17 12:33 41.67466 12.82472 15088 ft 298 kts 349°
2026-04-17 12:34 41.69481 12.81887 14687 ft 297 kts 349°
2026-04-17 12:34 41.71513 12.81303 14295 ft 295 kts 349°
2026-04-17 12:34 41.73509 12.80738 13911 ft 293 kts 349°
2026-04-17 12:34 41.75497 12.80183 13525 ft 291 kts 349°
2026-04-17 12:35 41.77473 12.79638 13135 ft 290 kts 349°
2026-04-17 12:35 41.79439 12.79095 12748 ft 288 kts 349°
2026-04-17 12:35 41.81397 12.78549 12368 ft 287 kts 349°
2026-04-17 12:35 41.83321 12.78011 11981 ft 286 kts 349°
2026-04-17 12:37 41.96742 12.74118 9268 ft 278 kts 349°
2026-04-17 12:37 41.98607 12.73563 8896 ft 276 kts 349°
2026-04-17 12:38 42.00488 12.73006 8510 ft 275 kts 349°
2026-04-17 12:38 42.02349 12.72459 8123 ft 274 kts 349°
2026-04-17 12:38 42.04203 12.71921 7734 ft 273 kts 349°
2026-04-17 12:38 42.06058 12.71387 7361 ft 272 kts 349°
2026-04-17 12:39 42.07891 12.70860 6994 ft 270 kts 349°
2026-04-17 12:39 42.09714 12.70333 6632 ft 269 kts 349°
2026-04-17 12:39 42.11549 12.69803 6254 ft 268 kts 349°
2026-04-17 12:39 42.13373 12.69277 5866 ft 267 kts 349°
2026-04-17 12:40 42.15178 12.68745 5514 ft 265 kts 346°
2026-04-17 12:40 42.16802 12.67604 5116 ft 267 kts 319°
2026-04-17 12:40 42.17981 12.65677 4793 ft 266 kts 307°
2026-04-17 12:40 42.19000 12.63613 4463 ft 264 kts 305°
2026-04-17 12:41 42.19978 12.61551 4139 ft 262 kts 304°
2026-04-17 12:41 42.20949 12.59500 4064 ft 261 kts 304°
2026-04-17 12:41 42.21934 12.57422 4065 ft 262 kts 304°
2026-04-17 12:41 42.22916 12.55356 4065 ft 262 kts 304°
2026-04-17 12:42 42.23900 12.53285 4065 ft 262 kts 304°
2026-04-17 12:42 42.24806 12.51165 4066 ft 264 kts 293°
2026-04-17 12:42 42.24939 12.48696 4061 ft 270 kts 258°
2026-04-17 12:42 42.24017 12.46499 4066 ft 275 kts 227°
2026-04-17 12:43 42.22570 12.44809 4066 ft 276 kts 221°
2026-04-17 12:43 42.21104 12.43148 4061 ft 276 kts 222°
2026-04-17 12:43 42.19642 12.41435 4053 ft 276 kts 223°
2026-04-17 12:43 42.18229 12.39729 4048 ft 275 kts 224°
2026-04-17 12:44 42.16815 12.37991 4044 ft 275 kts 224°
2026-04-17 12:44 42.15409 12.36248 4044 ft 275 kts 224°
2026-04-17 12:44 42.13989 12.34478 4046 ft 276 kts 224°
2026-04-17 12:44 42.12584 12.32726 4047 ft 276 kts 224°
2026-04-17 12:45 42.11189 12.30988 4024 ft 265 kts 224°
2026-04-17 12:45 42.09866 12.29341 3796 ft 258 kts 224°
2026-04-17 12:45 42.08548 12.27698 3521 ft 262 kts 224°
2026-04-17 12:45 42.07202 12.26021 3210 ft 261 kts 224°
2026-04-17 12:46 42.05881 12.24374 2902 ft 259 kts 224°
2026-04-17 12:46 42.04560 12.22728 2634 ft 255 kts 224°
2026-04-17 12:46 42.03295 12.21156 2554 ft 241 kts 224°
2026-04-17 12:46 42.02006 12.19808 2472 ft 230 kts 203°
2026-04-17 12:47 42.00516 12.19496 2460 ft 213 kts 173°
2026-04-17 12:47 41.99152 12.19911 2531 ft 191 kts 161°
2026-04-17 12:47 41.97899 12.20499 2498 ft 187 kts 159°
2026-04-17 12:47 41.96675 12.21082 2398 ft 188 kts 160°
2026-04-17 12:48 41.95446 12.21629 2160 ft 187 kts 161°
2026-04-17 12:48 41.94198 12.22155 1925 ft 186 kts 161°
2026-04-17 12:48 41.92960 12.22665 1692 ft 185 kts 161°
2026-04-17 12:48 41.91731 12.23174 1456 ft 184 kts 163°
2026-04-17 12:49 41.90525 12.23675 1220 ft 182 kts 162°
2026-04-17 12:49 41.89319 12.24179 1005 ft 175 kts 162°
2026-04-17 12:49 41.88200 12.24647 764 ft 162 kts 164°
2026-04-17 12:49 41.87167 12.25079 534 ft 150 kts 163°
2026-04-17 12:50 41.86183 12.25497 368 ft 148 kts 165°
2026-04-17 12:50 41.85200 12.25904 176 ft 147 kts 164°
2026-04-17 12:50 41.84218 12.26313 29 ft 145 kts 165°
2026-04-17 12:50 41.83375 12.26655 12 ft 101 kts 162°
2026-04-17 12:51 41.82879 12.26859 10 ft 46 kts 171°
2026-04-17 12:51 41.82607 12.26844 10 ft 35 kts 192°
2026-04-17 12:51 41.82400 12.26781 9 ft 23 kts 189°
2026-04-17 12:51 41.82246 12.26811 9 ft 22 kts 163°
2026-04-17 12:52 41.82100 12.26871 9 ft 21 kts 162°
2026-04-17 12:52 41.81958 12.26928 9 ft 20 kts 162°
2026-04-17 12:52 41.81823 12.26984 9 ft 19 kts 162°
2026-04-17 12:52 41.81695 12.27039 10 ft 19 kts 163°
2026-04-17 12:53 41.81570 12.27091 11 ft 18 kts 161°
2026-04-17 12:53 41.81451 12.27144 11 ft 17 kts 162°
2026-04-17 12:53 41.81333 12.27193 11 ft 17 kts 162°
2026-04-17 12:53 41.81218 12.27241 12 ft 17 kts 163°
2026-04-17 12:54 41.81103 12.27288 12 ft 16 kts 163°
2026-04-17 12:54 41.80991 12.27335 12 ft 16 kts 162°
2026-04-17 12:54 41.80878 12.27344 12 ft 16 kts 189°
2026-04-17 12:54 41.80765 12.27318 12 ft 16 kts 190°
2026-04-17 12:55 41.80663 12.27260 12 ft 16 kts 231°
2026-04-17 12:55 41.80626 12.27126 13 ft 15 kts 252°
2026-04-17 12:55 41.80591 12.26995 13 ft 14 kts 249°
2026-04-17 12:55 41.80556 12.26866 14 ft 14 kts 249°
2026-04-17 12:56 41.80522 12.26743 15 ft 13 kts 250°
2026-04-17 12:56 41.80489 12.26624 15 ft 13 kts 250°
2026-04-17 12:56 41.80456 12.26509 16 ft 13 kts 249°
2026-04-17 12:56 41.80424 12.26403 17 ft 11 kts 233°
2026-04-17 12:57 41.80357 12.26367 17 ft 10 kts 172°
2026-04-17 12:57 41.80283 12.26400 17 ft 11 kts 160°
2026-04-17 12:57 41.80203 12.26399 17 ft 12 kts 201°
2026-04-17 12:57 41.80126 12.26352 17 ft 12 kts 205°
2026-04-17 12:58 41.80050 12.26304 18 ft 12 kts 205°
2026-04-17 12:58 41.79974 12.26256 18 ft 12 kts 204°
2026-04-17 12:58 41.79890 12.26206 19 ft 13 kts 204°
2026-04-17 12:58 41.79804 12.26153 20 ft 12 kts 204°
2026-04-17 12:59 41.79739 12.26139 21 ft 9 kts 161°
2026-04-17 12:59 41.79689 12.26144 21 ft 6 kts 204°
2026-04-17 12:59 41.79664 12.26142 21 ft 3 kts 134°
2026-04-17 12:59 41.79647 12.26171 21 ft 4 kts 120°
2026-04-17 13:00 41.79637 12.26200 21 ft 2 kts 114°
2026-04-17 13:00 41.79634 12.26211 21 ft 0 kts 114°
2026-04-17 13:00 41.79633 12.26212 21 ft 0 kts 114°